Weather History for Wise, VA

Change the Weather History Date:

Wednesday, January 7, 2015

  Actual Average Record
Temperature  
Mean Temperature 14 °F -  
Max Temperature 26 °F 40 °F 60 °F (1998)
Min Temperature 3 °F 25 °F -7 °F (2014)
Degree Days  
Heating Degree Days 50    
Moisture  
Dew Point 7 °F    
Average Humidity 67    
Maximum Humidity 80    
Minimum Humidity 49    
Precipitation  
Precipitation 0.00 in - - ()
Sea Level Pressure  
Sea Level Pressure 30.23 in    
Wind  
Wind Speed 11 mph (NW)    
Max Wind Speed 17 mph    
Max Gust Speed 31 mph    
Visibility 8 miles    
Events Snow    
Averages and records for this station are not official NWS values.
T = Trace of Precipitation, MM = Missing Value Source: NWS Daily Summary

Daily Weather History Graph

Daily Weather History Graph

Search for Another Location

Airport:

Trip Planner

Search our weather history database for the weather conditions in past years. The results will help you decide how hot, cold, wet, or windy it might be!

Date:

Astronomy

Jan. 07, 2015 Rise Set
Actual Time 7:43 AM EST 5:29 PM EST
Civil Twilight 7:15 AM EST 5:57 PM EST
Nautical Twilight 6:42 AM EST 6:30 PM EST
Astronomical Twilight 6:11 AM EST 7:01 PM EST
Moon 8:08 PM EST (1/7) 8:59 AM EST (1/7)
Length of Visible Light 10h 42m
Length of Day
9h 45m
Waning Gibbous, 94% of the Moon is Illuminated
Jan 7
Waning Gibbous
Jan 13
Last Quarter
Jan 20
New
Jan 26
First Quarter
Feb 3
Full

Hourly Weather History & Observations

Time (EST) Temp. Windchill Dew Point Humidity Pressure Visibility Wind Dir Wind Speed Gust Speed Precip Events Conditions
12:15 AM 26.6 °F 16.8 °F 17.6 °F 69% 30.12 in 10.0 mi WNW 10.4 mph 16.1 mph N/A   Scattered Clouds
12:35 AM 26.6 °F 18.2 °F 17.6 °F 69% 30.12 in 10.0 mi WNW 8.1 mph - N/A   Scattered Clouds
12:55 AM 26.6 °F 17.5 °F 17.6 °F 69% 30.12 in 10.0 mi West 9.2 mph - N/A   Mostly Cloudy
1:15 AM 26.6 °F 15.2 °F 17.6 °F 69% 30.12 in 10.0 mi WNW 13.8 mph 17.3 mph N/A   Overcast
1:35 AM 26.6 °F 17.5 °F 17.6 °F 69% 30.12 in 10.0 mi WNW 9.2 mph 16.1 mph N/A   Mostly Cloudy
1:55 AM 26.6 °F 18.2 °F 17.6 °F 69% 30.12 in 10.0 mi West 8.1 mph - N/A   Mostly Cloudy
2:15 AM 26.6 °F 17.5 °F 17.6 °F 69% 30.11 in 10.0 mi West 9.2 mph - N/A   Overcast
2:35 AM 26.6 °F 21.2 °F 17.6 °F 69% 30.11 in 10.0 mi West 4.6 mph - N/A   Overcast
2:55 AM 26.6 °F 20.0 °F 17.6 °F 69% 30.09 in 10.0 mi WSW 5.8 mph - N/A   Overcast
3:15 AM 26.6 °F 18.2 °F 17.6 °F 69% 30.09 in 10.0 mi West 8.1 mph - N/A   Overcast
3:35 AM 26.6 °F 21.2 °F 17.6 °F 69% 30.09 in 10.0 mi West 4.6 mph - N/A   Overcast
3:55 AM 26.6 °F 18.2 °F 17.6 °F 69% 30.09 in 10.0 mi West 8.1 mph - N/A   Mostly Cloudy
4:15 AM 26.6 °F 20.0 °F 17.6 °F 69% 30.09 in 10.0 mi West 5.8 mph - N/A   Overcast
4:55 AM 26.6 °F 18.2 °F 17.6 °F 69% 30.08 in 10.0 mi WNW 8.1 mph - N/A   Overcast
5:15 AM 24.8 °F 16.1 °F 17.6 °F 74% 30.09 in 10.0 mi WNW 8.1 mph 21.9 mph N/A Snow Light Snow
5:35 AM 24.8 °F 11.9 °F 17.6 °F 74% 30.09 in 10.0 mi WNW 16.1 mph 21.9 mph N/A   Overcast
5:55 AM 24.8 °F 15.3 °F 17.6 °F 74% 30.10 in 7.0 mi WNW 9.2 mph 21.9 mph N/A Snow Light Snow
6:15 AM 23.0 °F 9.2 °F 17.6 °F 80% 30.10 in 7.0 mi WNW 17.3 mph 25.3 mph N/A Snow Light Snow
6:35 AM 23.0 °F 10.1 °F 17.6 °F 80% 30.11 in 7.0 mi NW 15.0 mph 19.6 mph N/A Snow Light Snow
6:55 AM 23.0 °F 10.6 °F 17.6 °F 80% 30.12 in 5.0 mi WNW 13.8 mph 20.7 mph N/A Snow Light Snow
7:15 AM 23.0 °F 10.1 °F 14.0 °F 68% 30.13 in 10.0 mi NW 15.0 mph 31.1 mph N/A Snow Light Snow
7:35 AM 21.2 °F 7.8 °F 12.2 °F 68% 30.13 in 10.0 mi WNW 15.0 mph 23.0 mph N/A Snow Light Snow
7:55 AM 21.2 °F 10.1 °F 12.2 °F 68% 30.14 in 10.0 mi NW 10.4 mph 21.9 mph N/A Snow Light Snow
8:15 AM 21.2 °F 6.8 °F 10.4 °F 63% 30.13 in 10.0 mi West 17.3 mph 23.0 mph N/A Snow Light Snow
8:35 AM 21.2 °F 10.9 °F 10.4 °F 63% 30.14 in 10.0 mi WNW 9.2 mph 17.3 mph N/A   Overcast
8:55 AM 21.2 °F 10.1 °F 10.4 °F 63% 30.14 in 7.0 mi WNW 10.4 mph 18.4 mph N/A Snow Light Snow
9:15 AM 19.4 °F 6.6 °F 10.4 °F 68% 30.15 in 5.0 mi NW 12.7 mph 17.3 mph N/A Snow Light Snow
9:35 AM 19.4 °F 6.6 °F 12.2 °F 74% 30.16 in 1.5 mi WNW 12.7 mph 18.4 mph N/A Snow Light Snow
9:55 AM 19.4 °F 5.0 °F 10.4 °F 68% 30.16 in 5.0 mi NW 16.1 mph 21.9 mph N/A   Haze
10:15 AM 19.4 °F 6.6 °F 10.4 °F 68% 30.17 in 5.0 mi NW 12.7 mph 24.2 mph N/A Snow Light Snow
10:35 AM 19.4 °F 5.0 °F 10.4 °F 68% 30.18 in 1.5 mi NW 16.1 mph 24.2 mph N/A Snow Light Snow
10:55 AM 19.4 °F 8.6 °F 8.6 °F 63% 30.17 in 7.0 mi NW 9.2 mph 26.5 mph N/A Snow Light Snow
11:15 AM 19.4 °F 7.2 °F 8.6 °F 63% 30.17 in 5.0 mi NNW 11.5 mph 19.6 mph N/A Snow Light Snow
11:35 AM 17.6 °F 8.2 °F 10.4 °F 73% 30.17 in 1.0 mi NNW 6.9 mph 16.1 mph N/A Snow Light Snow
11:55 AM 17.6 °F 2.7 °F 8.6 °F 68% 30.17 in 5.0 mi WNW 16.1 mph 24.2 mph N/A Snow Light Snow
12:15 PM 17.6 °F 3.2 °F 6.8 °F 63% 30.17 in 7.0 mi NW 15.0 mph 27.6 mph N/A   Overcast
12:35 PM 17.6 °F 5.7 °F 6.8 °F 63% 30.17 in 10.0 mi WNW 10.4 mph 23.0 mph N/A   Overcast
12:55 PM 17.6 °F 4.3 °F 8.6 °F 68% 30.17 in 1.0 mi NNW 12.7 mph 19.6 mph N/A Snow Light Snow
1:15 PM 17.6 °F 4.3 °F 8.6 °F 68% 30.18 in 3.0 mi WNW 12.7 mph 18.4 mph N/A Snow Light Snow
1:35 PM 17.6 °F 5.0 °F 8.6 °F 68% 30.17 in 2.0 mi NW 11.5 mph 20.7 mph N/A Snow Light Snow
1:55 PM 17.6 °F 7.3 °F 8.6 °F 68% 30.18 in 2.5 mi WNW 8.1 mph 18.4 mph N/A Snow Light Snow
2:15 PM 14.0 °F -0.2 °F 8.6 °F 79% 30.19 in 0.5 mi NNW 12.7 mph 20.7 mph N/A Snow Light Snow
2:35 PM 14.0 °F -0.8 °F 6.8 °F 73% 30.21 in 5.0 mi WNW 13.8 mph 17.3 mph N/A Snow Light Snow
2:55 PM 14.0 °F 1.2 °F 6.8 °F 73% 30.22 in 0.8 mi NW 10.4 mph 24.2 mph N/A Snow Light Snow
3:15 PM 14.0 °F -0.8 °F -2.2 °F 49% 30.23 in 10.0 mi WNW 13.8 mph 25.3 mph N/A   Mostly Cloudy
3:35 PM 14.0 °F 1.2 °F 1.4 °F 57% 30.25 in 10.0 mi NW 10.4 mph 20.7 mph N/A   Mostly Cloudy
3:55 PM 14.0 °F 2.0 °F -0.4 °F 53% 30.26 in 10.0 mi NW 9.2 mph 23.0 mph N/A   Mostly Cloudy
4:15 PM 10.4 °F 0.8 °F 3.2 °F 73% 30.28 in 2.0 mi NW 5.8 mph 19.6 mph N/A Snow Light Snow
4:35 PM 10.4 °F -4.8 °F -0.4 °F 62% 30.29 in 7.0 mi NW 12.7 mph 19.6 mph N/A   Mostly Cloudy
4:55 PM 10.4 °F -4.8 °F 1.4 °F 67% 30.31 in 2.5 mi NNW 12.7 mph 16.1 mph N/A Snow Light Snow
5:15 PM 10.4 °F -4.1 °F -0.4 °F 62% 30.32 in 10.0 mi NW 11.5 mph 20.7 mph N/A   Overcast
5:35 PM 8.6 °F -7.0 °F 1.4 °F 73% 30.34 in 1.5 mi NW 12.7 mph 19.6 mph N/A Snow Light Snow
5:55 PM 8.6 °F 2.0 °F 1.4 °F 73% 30.35 in 4.0 mi NW 3.5 mph - N/A Snow Light Snow
6:15 PM 8.6 °F -5.5 °F -4.0 °F 57% 30.37 in 10.0 mi NNW 10.4 mph 23.0 mph N/A   Mostly Cloudy
6:35 PM 8.6 °F -8.3 °F -5.8 °F 52% 30.38 in 10.0 mi NNW 15.0 mph 21.9 mph N/A   Scattered Clouds
6:55 PM 6.8 °F -9.3 °F -4.0 °F 61% 30.39 in 10.0 mi NNW 12.7 mph 20.7 mph N/A   Mostly Cloudy
7:15 PM 6.8 °F -10.7 °F -5.8 °F 56% 30.40 in 10.0 mi NW 15.0 mph 23.0 mph N/A   Scattered Clouds
7:35 PM 6.8 °F -10.7 °F -4.0 °F 61% 30.42 in 10.0 mi WNW 15.0 mph 23.0 mph N/A   Scattered Clouds
7:55 PM 6.8 °F -10.7 °F -4.0 °F 61% 30.42 in 10.0 mi NNW 15.0 mph 21.9 mph N/A   Overcast
8:15 PM 5.0 °F -13.0 °F -4.0 °F 66% 30.44 in 10.0 mi NW 15.0 mph 21.9 mph N/A   Mostly Cloudy
8:35 PM 5.0 °F -10.0 °F -4.0 °F 66% 30.45 in 10.0 mi NW 10.4 mph 17.3 mph N/A   Mostly Cloudy
8:55 PM 5.0 °F -10.8 °F -5.8 °F 61% 30.45 in 10.0 mi NNW 11.5 mph 20.7 mph N/A   Mostly Cloudy
9:15 PM 5.0 °F -12.3 °F -5.8 °F 61% 30.46 in 10.0 mi NW 13.8 mph 21.9 mph N/A   Mostly Cloudy
9:35 PM 5.0 °F -13.6 °F -4.0 °F 66% 30.46 in 10.0 mi NW 16.1 mph 24.2 mph N/A   Mostly Cloudy
9:55 PM 5.0 °F -10.8 °F -4.0 °F 66% 30.47 in 10.0 mi NW 11.5 mph 19.6 mph N/A   Scattered Clouds
10:15 PM 5.0 °F -12.3 °F -4.0 °F 66% 30.47 in 10.0 mi NW 13.8 mph 18.4 mph N/A   Mostly Cloudy
10:35 PM 5.0 °F -9.1 °F -4.0 °F 66% 30.47 in 7.0 mi NNW 9.2 mph 18.4 mph N/A   Overcast
10:55 PM 5.0 °F -9.1 °F -4.0 °F 66% 30.46 in 5.0 mi NNW 9.2 mph 16.1 mph N/A Snow Light Snow
11:15 PM 5.0 °F -8.1 °F -5.8 °F 61% 30.46 in 10.0 mi NNW 8.1 mph 16.1 mph N/A   Overcast
11:35 PM 3.2 °F -10.3 °F -5.8 °F 66% 30.47 in 10.0 mi NNW 8.1 mph 17.3 mph N/A   Overcast
11:55 PM 3.2 °F -13.1 °F -4.0 °F 72% 30.47 in 5.0 mi NNW 11.5 mph 16.1 mph N/A Snow Light Snow